C/2007 M3 ( LINEAR )

Japanese version
Home page
Total 6,336 html files since Dec. 4, 1995
Updated on July 27, 2008

---------------------------------------------------------------------

* Profile

Discovery Date June 21, 2007
Magnitude 17.2 mag
Discoverer Lincoln Laboratory Near-Earth Asteroid Research project

* Pictures

* Orbital Elements

The following orbital elements are taken from MPC 62581:

Epoch 2007 Sept. 17.0 TT = JDT 2454360.5
T 2007 Sept. 4.5900 TT                                  MPC
q   3.468780             (2000.0)            P               Q
z  +0.005741       Peri.  125.7382      +0.0755143      -0.9752247
 +/-0.000005       Node    41.6277      -0.9857298      -0.0415472
e   0.980086       Incl.  161.7593      -0.1504470      -0.2172799
From 609 observations 2007 June 21-2008 Apr. 15, mean residual 0".6.

* Finding Charts

* Magnitudes Graph

        m1 = 8.5 + 5 log d + 10.0 log r

---------------------------------------------------------------------

The orbital elements are published at the MPC Ephemerides and Orbital Elements.
The charts are made with StellaNavigator Ver.2.0 for Windows (AstroArts / ASCII).
The magnitudes graphs are made with Comet for Windows.

---------------------------------------------------------------------

Copyright(C) 1995-2008 Seiichi Yoshida (comet@aerith.net). All rights reserved.